Hourly Weather Newcastle

Today, 5 August, Wednesday

Time Temperature Precipitation Wind Pressure Humidity
00:00 +16°C° 0 mm 6 mps 743 mmHg 85%
01:00 +16°C° 0 mm 6 mps 743 mmHg 84%
02:00 +16°C° 0 mm 7 mps 743 mmHg 84%
03:00 +15°C° 0 mm 7 mps 743 mmHg 83%
04:00 +15°C° 0.1 mm 7 mps 743 mmHg 84%
05:00 +15°C° 0.1 mm 7 mps 742 mmHg 85%
06:00 +15°C° 0.1 mm 7 mps 742 mmHg 86%
07:00 +17°C° 0 mm 7 mps 742 mmHg 83%
08:00 +18°C° 0 mm 7 mps 743 mmHg 80%
09:00 +20°C° 0 mm 7 mps 743 mmHg 78%
10:00 +21°C° 0 mm 8 mps 743 mmHg 75%
11:00 +21°C° 0 mm 8 mps 743 mmHg 73%
12:00 +22°C° 0 mm 8 mps 743 mmHg 71%
13:00 +21°C° 0.2 mm 8 mps 743 mmHg 74%
14:00 +21°C° 0.2 mm 7 mps 743 mmHg 77%
15:00 +20°C° 0.2 mm 7 mps 743 mmHg 80%
16:00 +20°C° 0.1 mm 6 mps 743 mmHg 83%
17:00 +19°C° 0.1 mm 6 mps 743 mmHg 86%
18:00 +19°C° 0.1 mm 6 mps 743 mmHg 89%
19:00 +17°C° 0.1 mm 5 mps 744 mmHg 91%
20:00 +18°C° 0.1 mm 4 mps 744 mmHg 93%
21:00 +17°C° 0.1 mm 4 mps 745 mmHg 95%
22:00 +17°C° 0 mm 3 mps 745 mmHg 95%
23:00 +16°C° 0 mm 3 mps 746 mmHg 95%

Tomorrow, 6 August, Thursday

Time Temperature Precipitation Wind Pressure Humidity
00:00 +15°C° 0 mm 2 mps 746 mmHg 96%
01:00 +15°C° 0 mm 2 mps 746 mmHg 96%
02:00 +15°C° 0 mm 2 mps 747 mmHg 96%
03:00 +14°C° 0 mm 1 mps 747 mmHg 96%
04:00 +15°C° 0 mm 1 mps 747 mmHg 95%
05:00 +15°C° 0 mm 1 mps 747 mmHg 95%
06:00 +15°C° 0 mm 1 mps 747 mmHg 94%
07:00 +17°C° 0 mm 2 mps 748 mmHg 89%
08:00 +18°C° 0 mm 2 mps 748 mmHg 84%
09:00 +20°C° 0 mm 3 mps 749 mmHg 79%
10:00 +21°C° 0 mm 4 mps 749 mmHg 76%
11:00 +22°C° 0 mm 4 mps 749 mmHg 73%
12:00 +23°C° 0 mm 5 mps 749 mmHg 70%
13:00 +23°C° 0.2 mm 4 mps 749 mmHg 71%
14:00 +25°C° 0.2 mm 4 mps 749 mmHg 72%
15:00 +25°C° 0.2 mm 4 mps 748 mmHg 72%
16:00 +23°C° 0.1 mm 4 mps 748 mmHg 74%
17:00 +23°C° 0.1 mm 4 mps 748 mmHg 76%
18:00 +24°C° 0.1 mm 3 mps 748 mmHg 79%
19:00 +21°C° 0.1 mm 3 mps 748 mmHg 83%
20:00 +20°C° 0.1 mm 3 mps 749 mmHg 87%
21:00 +19°C° 0.1 mm 2 mps 749 mmHg 91%
22:00 +19°C° 0 mm 2 mps 749 mmHg 92%
23:00 +19°C° 0 mm 2 mps 749 mmHg 93%

Day after tomorrow, 7 August, Friday

Time Temperature Precipitation Wind Pressure Humidity
00:00 +18°C° 0 mm 2 mps 749 mmHg 94%
01:00 +18°C° 0 mm 2 mps 749 mmHg 94%
02:00 +18°C° 0 mm 2 mps 749 mmHg 95%
03:00 +17°C° 0 mm 2 mps 749 mmHg 96%
04:00 +18°C° 0 mm 2 mps 750 mmHg 95%
05:00 +18°C° 0 mm 2 mps 750 mmHg 95%
06:00 +18°C° 0 mm 2 mps 750 mmHg 94%
07:00 +19°C° 0 mm 2 mps 750 mmHg 88%
08:00 +21°C° 0 mm 3 mps 750 mmHg 81%
09:00 +24°C° 0 mm 3 mps 750 mmHg 75%
10:00 +25°C° 0 mm 3 mps 750 mmHg 69%
11:00 +26°C° 0 mm 3 mps 750 mmHg 64%
12:00 +28°C° 0 mm 3 mps 750 mmHg 58%
13:00 +28°C° 0 mm 4 mps 749 mmHg 56%
14:00 +29°C° 0 mm 4 mps 749 mmHg 54%
15:00 +30°C° 0 mm 4 mps 749 mmHg 51%
16:00 +29°C° 0 mm 4 mps 748 mmHg 55%
17:00 +29°C° 0 mm 3 mps 748 mmHg 60%
18:00 +28°C° 0 mm 3 mps 748 mmHg 64%
19:00 +26°C° 0.1 mm 3 mps 748 mmHg 68%
20:00 +25°C° 0.1 mm 3 mps 749 mmHg 71%
21:00 +22°C° 0.1 mm 3 mps 749 mmHg 74%
22:00 +21°C° 0 mm 3 mps 749 mmHg 80%
23:00 +20°C° 0 mm 3 mps 750 mmHg 85%

8 August, Saturday

Time Temperature Precipitation Wind Pressure Humidity
00:00 +18°C° 0 mm 3 mps 750 mmHg 90%
01:00 +17°C° 0 mm 4 mps 750 mmHg 90%
02:00 +17°C° 0 mm 4 mps 751 mmHg 90%
03:00 +15°C° 0 mm 4 mps 751 mmHg 90%
04:00 +14°C° 0 mm 4 mps 751 mmHg 88%
05:00 +14°C° 0 mm 4 mps 752 mmHg 86%
06:00 +13°C° 0 mm 4 mps 752 mmHg 84%
07:00 +14°C° 0 mm 4 mps 753 mmHg 78%
08:00 +17°C° 0 mm 4 mps 753 mmHg 71%
09:00 +17°C° 0 mm 5 mps 753 mmHg 65%
10:00 +19°C° 0 mm 4 mps 754 mmHg 60%
11:00 +20°C° 0 mm 4 mps 754 mmHg 56%
12:00 +22°C° 0 mm 4 mps 754 mmHg 52%
13:00 +22°C° 0 mm 4 mps 754 mmHg 52%
14:00 +22°C° 0 mm 4 mps 754 mmHg 52%
15:00 +23°C° 0 mm 4 mps 754 mmHg 52%
16:00 +22°C° 0 mm 4 mps 754 mmHg 57%
17:00 +21°C° 0 mm 4 mps 754 mmHg 63%
18:00 +19°C° 0 mm 4 mps 754 mmHg 68%
19:00 +18°C° 0 mm 4 mps 754 mmHg 72%
20:00 +16°C° 0 mm 3 mps 755 mmHg 75%
21:00 +14°C° 0 mm 3 mps 755 mmHg 79%
22:00 +13°C° 0 mm 3 mps 755 mmHg 79%
23:00 +13°C° 0 mm 3 mps 755 mmHg 80%

9 August, Sunday

Time Temperature Precipitation Wind Pressure Humidity
00:00 +13°C° 0 mm 3 mps 755 mmHg 80%
01:00 +12°C° 0 mm 3 mps 754 mmHg 80%
02:00 +12°C° 0 mm 3 mps 754 mmHg 80%
03:00 +12°C° 0 mm 3 mps 754 mmHg 80%
04:00 +12°C° 0 mm 3 mps 754 mmHg 80%
05:00 +13°C° 0 mm 3 mps 754 mmHg 80%
06:00 +13°C° 0 mm 3 mps 754 mmHg 81%
07:00 +14°C° 0 mm 4 mps 754 mmHg 79%
08:00 +15°C° 0 mm 4 mps 753 mmHg 77%
09:00 +16°C° 0 mm 5 mps 753 mmHg 75%
10:00 +16°C° 0 mm 5 mps 753 mmHg 75%
11:00 +18°C° 0 mm 4 mps 753 mmHg 76%
12:00 +18°C° 0 mm 4 mps 753 mmHg 76%
13:00 +17°C° 0 mm 5 mps 753 mmHg 77%
14:00 +17°C° 0 mm 5 mps 752 mmHg 77%
15:00 +17°C° 0 mm 5 mps 752 mmHg 78%
16:00 +17°C° 0 mm 5 mps 752 mmHg 80%
17:00 +16°C° 0 mm 5 mps 752 mmHg 81%
18:00 +16°C° 0 mm 5 mps 752 mmHg 83%
19:00 +15°C° 0 mm 4 mps 752 mmHg 84%
20:00 +15°C° 0 mm 4 mps 752 mmHg 86%
21:00 +15°C° 0 mm 4 mps 752 mmHg 87%
22:00 +14°C° 0 mm 4 mps 752 mmHg 88%
23:00 +14°C° 0 mm 4 mps 751 mmHg 89%

10 August, Monday

Time Temperature Precipitation Wind Pressure Humidity
00:00 +13°C° 0 mm 4 mps 751 mmHg 90%
01:00 +13°C° 0 mm 4 mps 751 mmHg 89%
02:00 +14°C° 0 mm 4 mps 751 mmHg 87%
03:00 +14°C° 0 mm 4 mps 750 mmHg 86%
04:00 +14°C° 0 mm 4 mps 750 mmHg 85%
05:00 +14°C° 0 mm 4 mps 750 mmHg 84%
06:00 +14°C° 0 mm 4 mps 750 mmHg 82%
07:00 +14°C° 0 mm 4 mps 750 mmHg 82%
08:00 +14°C° 0 mm 4 mps 750 mmHg 81%
09:00 +15°C° 0 mm 4 mps 750 mmHg 80%
10:00 +15°C° 0 mm 4 mps 750 mmHg 79%
11:00 +16°C° 0 mm 3 mps 750 mmHg 78%
12:00 +17°C° 0 mm 3 mps 750 mmHg 77%
13:00 +17°C° 0 mm 3 mps 750 mmHg 77%
14:00 +17°C° 0 mm 2 mps 749 mmHg 78%
15:00 +18°C° 0 mm 2 mps 749 mmHg 78%
16:00 +17°C° 0 mm 2 mps 749 mmHg 80%
17:00 +17°C° 0 mm 2 mps 749 mmHg 83%
18:00 +16°C° 0 mm 2 mps 749 mmHg 85%
19:00 +16°C° 0 mm 1 mps 749 mmHg 86%
20:00 +16°C° 0 mm 1 mps 749 mmHg 87%
21:00 +15°C° 0 mm 1 mps 749 mmHg 88%
22:00 +15°C° 0 mm 1 mps 749 mmHg 88%
23:00 +15°C° 0 mm 1 mps 749 mmHg 88%
Show more